User: anonymous   Login
Location: Unspecified
(0.0000°N, 0.0000°E)
Time: 07:26:55
(UTC+00:00)
Language:

FO-29 - Orbit

View from above orbital plane
View from above orbital plane
View from above satellite
View from above satellite

Ground track
Ground track

The orbit data is extracted from the following two-line orbital elements,

1 24278U 96046B   20336.50189905 +.00000013 +00000-0 +52273-4 0  9996
2 24278 098.5886 064.5152 0349397 302.4376 054.3417 13.53100701199477
Epoch (UTC): 01 December 2020 12:02:44
Eccentricity: 0.0349397
inclination: 98.5886°
perigee height: 801 km
apogee height: 1321 km
right ascension of ascending node: 64.5152°
argument of perigee: 302.4376°
revolutions per day: 13.53100701
mean anomaly at epoch: 54.3417°
orbit number at epoch: 19947

The dashed part of the orbit path shows where the satellite is in the earth's shadow,  

DLR